Content
SEND FEEDBACK

Daily
Averages
Monthly
Summary
United States of America

CRANE LAKE, MISSOURI


Home > North America > United States > Missouri
Elevation: 950 feet     Latitude: 37 27N     Longitude: 090 38W

WEATHER
 
SELECT A DAY
Number of Records: 442,401;   Date Range: 2/10/95 - 7/26/14
 
SHARE

PRINT THIS DATA

[ ← Previous Day ]
WEATHER ALMANAC - JANUARY 31, 2013
[ Next Day → ]
[ °C ]   °F
Weather ElementAverageHighLow
Temperature27 °F39.2 °F (1:15 pm)14 °F (11:15 pm)
Dewpoint14.7 °F26.6 °F (3:15 pm)1.4 °F (10:35 pm)
Humidity60.4 %80 % (3:15 pm)45 % (1:15 pm)
Barometer30.07 in30.35 in (11:35 pm)29.95 in (12:35 am)
Wind Speed11.8 mph24.2 mph (5:55 pm)
Wind Gust33.4 mph (5:55 pm)
Weather ElementAverage
Visibility9.5 mi
Wind DirectionW (272.5 °)

Weather ElementTotal
Precipitation---
Heating Degree Days38.4 (Base 65)
Averaged from 68 records on January 31, 2013
WEATHER CONDITIONS BREAKOUT
WIND DIRECTION BREAKOUT
WEATHER BY HOUR - JANUARY 31, 2013
[ °C ]   °F
Local TimeTemperatureDewpointHumidityBarometerVisibilityWind DirectionWind SpeedGust SpeedPrecipitationEventsConditions
12:35 AM26.6 °F15.8 °F64 %29.95 in10.0 miWest (270°)15.0 mph23.0 mphOvercast
12:55 AM26.6 °F15.8 °F64 %29.95 in10.0 miWest (270°)12.7 mph24.2 mphOvercast
1:15 AM26.6 °F14.0 °F59 %29.95 in10.0 miWest (270°)15.0 mph28.8 mphOvercast
1:35 AM26.6 °F15.8 °F64 %29.96 in10.0 miWest (270°)12.7 mph24.2 mphOvercast
1:55 AM26.6 °F15.8 °F64 %29.96 in10.0 miWest (270°)12.7 mph19.6 mphOvercast
2:15 AM26.6 °F15.8 °F64 %29.96 in10.0 miWest (280°)8.1 mphOvercast
2:35 AM26.6 °F15.8 °F64 %29.96 in10.0 miWest (280°)10.4 mphOvercast
2:55 AM26.6 °F17.6 °F69 %29.96 in10.0 miWest (270°)10.4 mph19.6 mphOvercast
3:15 AM26.6 °F17.6 °F69 %29.96 in10.0 miWest (280°)10.4 mph16.1 mphOvercast
3:35 AM26.6 °F15.8 °F64 %29.96 in10.0 miWest (280°)9.2 mph16.1 mphOvercast
3:55 AM26.6 °F15.8 °F64 %29.96 in10.0 miWest (280°)11.5 mph17.3 mphOvercast
4:15 AM26.6 °F15.8 °F64 %29.96 in10.0 miWest (270°)9.2 mphOvercast
4:35 AM26.6 °F17.6 °F69 %29.95 in10.0 miWSW (240°)8.1 mphOvercast
4:55 AM26.6 °F17.6 °F69 %29.97 in10.0 miWest (270°)6.9 mphOvercast
5:15 AM26.6 °F15.8 °F64 %29.96 in10.0 miWest (260°)6.9 mphOvercast
5:35 AM26.6 °F15.8 °F64 %29.96 in10.0 miWest (270°)8.1 mphOvercast
5:55 AM26.6 °F17.6 °F69 %29.97 in10.0 miWest (270°)5.8 mphOvercast
6:15 AM26.6 °F17.6 °F69 %29.99 in10.0 miWest (260°)10.4 mph16.1 mphOvercast
6:35 AM26.6 °F15.8 °F64 %29.98 in10.0 miWest (260°)8.1 mphOvercast
6:55 AM26.6 °F17.6 °F69 %30.00 in10.0 miWest (270°)5.8 mph18.4 mphOvercast
7:15 AM26.6 °F15.8 °F64 %30.01 in10.0 miWest (270°)8.1 mphOvercast
7:35 AM26.6 °F15.8 °F64 %30.00 in10.0 miWest (280°)5.8 mphOvercast
7:55 AM26.6 °F17.6 °F69 %30.02 in10.0 miWSW (250°)5.8 mphOvercast
8:15 AM26.6 °F15.8 °F64 %30.02 in10.0 miWest (260°)8.1 mphMostly Cloudy
8:35 AM26.6 °F17.6 °F69 %30.03 in10.0 miWest (260°)6.9 mphScattered Clouds
8:55 AM28.4 °F17.6 °F64 %30.04 in10.0 miWSW (240°)8.1 mphScattered Clouds
9:15 AM28.4 °F17.6 °F64 %30.04 in10.0 miWSW (250°)8.1 mphOvercast
9:35 AM28.4 °F17.6 °F64 %30.06 in10.0 miWest (260°)8.1 mphOvercast
9:55 AM30.2 °F17.6 °F60 %30.07 in10.0 miWest (270°)8.1 mphOvercast
10:15 AM30.2 °F19.4 °F64 %30.07 in10.0 miWSW (250°)11.5 mphOvercast
10:35 AM32.0 °F17.6 °F55 %30.07 in10.0 miWest (270°)8.1 mph16.1 mphMostly Cloudy
10:55 AM33.8 °F19.4 °F56 %30.06 in10.0 miWest (260°)8.1 mphPartly Cloudy
11:15 AM33.8 °F19.4 °F56 %30.05 in10.0 miWSW (240°)12.7 mphPartly Cloudy
11:35 AM35.6 °F19.4 °F52 %30.04 in10.0 miSW (230°)11.5 mph16.1 mphClear
11:55 AM35.6 °F19.4 °F52 %30.03 in10.0 miWest (260°)10.4 mph16.1 mphClear
12:15 PM37.4 °F19.4 °F48 %30.02 in10.0 miWest (280°)8.1 mph17.3 mphClear
12:35 PM37.4 °F19.4 °F48 %30.02 in10.0 miWest (270°)11.5 mph21.9 mphPartly Cloudy
12:55 PM37.4 °F21.2 °F52 %30.01 in10.0 miWest (270°)9.2 mphMostly Cloudy
1:15 PM39.2 °F19.4 °F45 %30.00 in10.0 miWest (280°)11.5 mph17.3 mphMostly Cloudy
1:35 PM37.4 °F19.4 °F48 %30.00 in10.0 miWest (270°)9.2 mph19.6 mphOvercast
2:15 PM37.4 °F21.2 °F52 %30.02 in10.0 miWest (280°)12.7 mph20.7 mphOvercast
2:35 PM35.6 °F21.2 °F56 %30.04 in10.0 miWest (270°)16.1 mph23.0 mphOvercast
2:55 PM35.6 °F23.0 °F60 %30.05 in4.0 miWest (280°)15.0 mph25.3 mphMostly Cloudy
3:15 PM32.0 °F26.6 °F80 %30.07 in1.5 miWest (280°)15.0 mph24.2 mphOvercast
3:35 PM30.2 °F24.8 °F80 %30.08 in8.0 miWest (280°)12.7 mph24.2 mphOvercast
3:55 PM30.2 °F23.0 °F75 %30.09 in2.5 miWest (280°)18.4 mph26.5 mphOvercast
4:15 PM28.4 °F21.2 °F74 %30.08 in3.0 miWest (270°)11.5 mph25.3 mphMostly Cloudy
4:35 PM30.2 °F21.2 °F69 %30.09 in10.0 miWest (280°)13.8 mph20.7 mphMostly Cloudy
4:55 PM30.2 °F17.6 °F60 %30.09 in10.0 miWNW (290°)15.0 mph19.6 mphOvercast
5:15 PM28.4 °F17.6 °F64 %30.11 in10.0 miNW (310°)17.3 mph31.1 mphOvercast
5:35 PM26.6 °F15.8 °F64 %30.13 in10.0 miWNW (290°)17.3 mph29.9 mphMostly Cloudy
5:55 PM26.6 °F10.4 °F51 %30.14 in10.0 miWest (280°)24.2 mph33.4 mphPartly Cloudy
6:15 PM24.8 °F6.8 °F46 %30.16 in10.0 miWNW (290°)15.0 mph27.6 mphClear
6:35 PM23.0 °F6.8 °F50 %30.17 in10.0 miWNW (290°)18.4 mph24.2 mphClear
6:55 PM21.2 °F6.8 °F54 %30.19 in10.0 miWest (280°)13.8 mph19.6 mphClear
7:15 PM21.2 °F5.0 °F50 %30.20 in10.0 miWNW (290°)17.3 mph23.0 mphClear
7:35 PM21.2 °F6.8 °F54 %30.22 in10.0 miWest (280°)12.7 mph17.3 mphClear
7:55 PM19.4 °F3.2 °F49 %30.23 in10.0 miWest (280°)18.4 mph23.0 mphClear
8:15 PM19.4 °F3.2 °F49 %30.24 in10.0 miWest (270°)15.0 mph29.9 mphClear
8:35 PM17.6 °F3.2 °F53 %30.25 in10.0 miWest (280°)16.1 mph23.0 mphClear
8:55 PM17.6 °F3.2 °F53 %30.26 in10.0 miWest (280°)12.7 mph24.2 mphClear
9:15 PM17.6 °F5.0 °F58 %30.28 in10.0 miWNW (300°)15.0 mph20.7 mphPartly Cloudy
9:35 PM15.8 °F3.2 °F58 %30.29 in10.0 miWNW (290°)15.0 mph26.5 mphPartly Cloudy
10:15 PM15.8 °F3.2 °F58 %30.31 in10.0 miWest (270°)17.3 mph23.0 mphClear
10:35 PM15.8 °F1.4 °F53 %30.32 in10.0 miWest (280°)12.7 mph28.8 mphClear
10:55 PM15.8 °F1.4 °F53 %30.33 in10.0 miWest (280°)16.1 mph24.2 mphClear
11:15 PM14.0 °F1.4 °F57 %30.34 in10.0 miWest (280°)13.8 mph21.9 mphClear
11:35 PM14.0 °F1.4 °F57 %30.35 in10.0 miWNW (290°)10.4 mph20.7 mphClear
Hourly data recorded from KFAM, located miles away from Crane Lake, Missouri







STORIES FROM OUR PARTNERS